Regional Weather Roundup
Issued by NWS Grand Forks, ND

Home | Current Version | Previous Version | Text Only | Print | Product List | Glossary On
Versions: 1 2 3 4 5 6 7 8 9 10 11 12 13 14 15 16 17 18 19 20 21 22 23 24 25 26 27 28 29 30 31 32 33 34 35 36 37 38 39 40 41 42 43 44 45 46 47 48 49 50
000
ASUS43 KFGF 191910
RWRFGF
PRAIRIE TO PINES  WEATHER ROUNDUP
NATIONAL WEATHER SERVICE EASTERN NORTH DAKOTA/GRAND FORKS ND
200 PM CDT TUE SEP 19 2017

 **SATELLITE DATA USED TO AUGMENT SKY COVER AT AUTOMATED STATIONS**
 *****  WEATHER ACROSS EASTERN NORTH DAKOTA  *****

CITY           SKY/WX    TMP DP  RH WIND       PRES   REMARKS
GRAND FORKS    CLOUDY    72  64  76 SE18      29.59F
GRAND FRKS AFB CLOUDY    70  64  83 S9        29.61S
DEVILS LAKE    CLOUDY    65  62  90 SE22      29.53F
FARGO          FAIR      77  63  61 SE22G38   29.60F
WAHPETON ARPT  CLOUDY    72  61  68 SE22G32   29.63F
$$

 ***** WEATHER ACROSS CENTRAL AND WESTERN NORTH DAKOTA  *****

CITY           SKY/WX    TMP DP  RH WIND       PRES   REMARKS
BISMARCK       PTSUNNY   71  53  52 S10       29.47F
MINOT          FAIR      70  60  70 S15G24    29.43F
JAMESTOWN      FAIR      71  63  75 SE16      29.50F
MINOT AFB      FAIR      68  58  71 S16G22    29.42F
GARRISON         N/A     68  58  70 SW14      29.46S
WILLISTON      FAIR      62  51  67 W17       29.47R
DICKINSON      PTSUNNY   59  51  75 W10       29.51S
HETTINGER      CLOUDY    61  48  62 NW16      29.52F
$$

 *****  OTHER AIRPORT OBSERVATIONS IN OUR AREA  *****

CITY           SKY/WX    TMP DP  RH WIND       PRES   REMARKS
WALHALLA       FAIR     N/A N/A N/A SE18      29.59F HAZE
GRAFTON AIRPOR CLOUDY    68  63  83 SE14G29   29.63S
VALLEY CITY AR CLOUDY    70  70 100 SE18G28   29.60F
CANDO          CLOUDY    64  64 100 SE15G23   29.55F
CAVALIER APRT  CLOUDY    64  63  94 SE9G16    29.60F
GWINNER        MOCLDY    73  64  73 SE23G30   29.57F
SHEYENNE NWR     N/A     73  66  78 SE24      29.95S
ROLLA          CLOUDY    61  61 100 SE20      29.51F
 ***** THE ABOVE OBSERVATIONS ARE NON NWS ARE NOT QUALITY
       CONTROLLED AND MAY MIS-REPORT RAIN FOR SNOW...
$$

  *****  WEATHER ACROSS NORTHERN MINNESOTA  *****

CITY           SKY/WX    TMP DP  RH WIND       PRES   REMARKS
FLAG ISLAND    FAIR      61  55  82 SE6       29.76F
WARROAD        FAIR      66  61  82 E16       29.74F
ROSEAU         FAIR      70  61  73 SE15G22   29.71F
HALLOCK        FAIR      73  63  68 SE18G24   29.61F
THF RVR FALLS  FAIR      74  60  61 SE23G33   29.67F
BAUDETTE       PTSUNNY   67  60  78 SE16      29.76F
WASKISH        PTSUNNY   70  61  73 SE9G20    29.76F
CROOKSTON      FAIR      75  61  60 S22       29.62F
STEPHEN NDAWN    N/A    N/A N/A N/A SE14        N/A
GREENBUSH NDAW   N/A     73  59  60 SE16        N/A
$$
  *****  WEATHER ACROSS CENTRAL AND WEST MINNESOTA  *****

CITY           SKY/WX    TMP DP  RH WIND       PRES   REMARKS
FOSSTON        FAIR      73  61  64 SE14G25   29.69F
BEMIDJI        CLOUDY    66  60  82 SE15G23   29.76F
PARK RAPIDS    PTSUNNY   72  61  68 SE22      29.75F
ELBOW LAKE     CLOUDY    69  64  83 E20G30    29.69F HAZE
WADENA         CLOUDY    70  61  73 SE17G24   29.74F
DETROIT LAKES  FAIR      72  61  68 SE22G30   29.70F
MOORHEAD       FAIR      75  63  64 SE17G31   29.62F
FERGUS FALLS   PTSUNNY   72  63  73 SE23G29   29.67F
MORRIS MN      FAIR      72  64  78 SE23G33   29.67F
STAPLES        PTSUNNY   70  61  73 SE12G23   29.76F
$$
  *****  WEATHER ELSEWHERE ACROSS MINNESOTA  *****

CITY           SKY/WX    TMP DP  RH WIND       PRES   REMARKS
DULUTH         FAIR      66  59  78 SE14      29.89F
INTRNTL FALLS  FAIR      67  58  72 SE13      29.82F
ELY            FAIR      70  57  64 S14       29.89F
CLOQUET        FAIR      68  57  68 E9G17     29.86F
WHEATON        PTSUNNY   73  63  68 SE24G33   29.64F
BRAINERD       PTSUNNY   72  62  71 S15G22    29.80F
HIBBING        FAIR      66  59  78 SE10      29.85F
ALEXANDRIA     CLOUDY    72  64  76 SE17G29   29.74F
SAINT CLOUD    PTSUNNY   77  64  64 SE18      29.78F
MINNEAPOLIS    PTSUNNY   77  64  64 SE16      29.82F
$$

  *****  WEATHER ACROSS SOUTH DAKOTA  *****

CITY           SKY/WX    TMP DP  RH WIND       PRES   REMARKS
SIOUX FALLS    PTSUNNY   78  69  73 SE17G26   29.64F
BROOKINGS      CLOUDY    71  66  84 SE25G33   29.64F
WATERTOWN      CLOUDY    71  66  84 SE20G37   29.60F
HURON          FAIR      77  67  71 SE24G38   29.52F
SISSETON         N/A     73  65  75 SE24G37   29.60F
ABERDEEN       FAIR      75  65  70 SE18      29.52F
MITCHELL       FAIR      82  67  60 SE18G32   29.53F
PIERRE         FAIR      78  64  61 SE20      29.44F
MOBRIDGE       CLOUDY    73  65  75 S14G24    29.45F
RAPID CITY     SUNNY     73  45  35 VRB5      29.52S
$$

  *****  SOME WEATHER IN NEARBY STATES *****

CITY           SKY/WX    TMP DP  RH WIND       PRES   REMARKS
GLASGOW MT     NOT AVBL
GREAT FALLS MT FAIR      55  26  32 W21G26    29.63S
CHEYENNE WY    FAIR      78  16   9 S14       29.69F
SCOTTSBLUFF NE FAIR      74  50  42 SE7       29.57F
OMAHA NE       FAIR      86  67  52 SE26G35   29.69F
DES MOINES IA  FAIR      80  68  66 S16       29.82F
DAVENPORT IA   FAIR      77  64  64 VRB6      29.95F
CHICAGO IL     PTSUNNY   77  65  66 NE13      29.93F
EAU CLAIRE WI  FAIR      76  61  59 SE12      29.89F
LA CROSSE WI   PTSUNNY   80  64  58 SE14      29.89F
$$

  *****  SOME NATIONAL WEATHER *****

CITY           SKY/WX    TMP DP  RH WIND       PRES   REMARKS
LA GUARDIA NY  LGT RAIN  74  67  78 NE20      29.92F
RALEIGH NC     FAIR      84  60  44 NW9       29.95F
ATLANTA GA     FAIR      87  61  41 VRB3      29.99F
NEW ORLEANS LA PTSUNNY   89  74  60 VRB3      29.96F HX  98
OKLAHOMA CITY  FAIR      92  70  48 S22G31    29.81F HX  97
ALBUQUERQUE NM FAIR      80  32  17 SW17G24   30.02F
SALT LAKE CITY PTSUNNY   56  38  50 NW3       29.95R
LOS ANGELES CA CLOUDY    70  61  73 W9        29.94F
BOISE ID       CLOUDY    53  40  61 VRB6      29.90F
SEATTLE WA     PTSUNNY   58  49  72 SW12      29.76R
$$

*** WEATHER ACROSS MANITOBA...SASKATCHEWAN AND ONTARIO ***
                ***ONTARIO***

CITY           SKY/WX    TMP DP  RH WIND       PRES   REMARKS
GERALDTON      PTSUNNY   63  52  67 S7        30.05F
THUNDER BAY    CLOUDY    63  54  72 E10       29.99F
SIOUX LOOKOUT  PTSUNNY   61  55  82 SE8       29.90F
TORONTO        PTSUNNY   81  66  61 SE7       29.99F
BIG TROUT LK   SUNNY     54  39  58 S5        30.03S
PICKLE LAKE    LGT RAIN  57  52  82 SE14      29.97F
DRYDEN         CLOUDY    63  55  77 SE16G23   29.86F
KENORA         CLOUDY    61  55  82 SE10      29.81F
$$
                *** MANITOBA***

CITY           SKY/WX    TMP DP  RH WIND       PRES   REMARKS
BRANDON        LGT RAIN  59  57  94 E18G25    29.52F FOG
DAUPHIN        LGT RAIN  57  55  94 E17G30    29.54F
ISLAND LAKE    NOT AVBL
PILOT MOUND      N/A     61  59  94 SE18G24     N/A
THE PAS        CLOUDY    59  48  67 E16G25    29.67F
THOMPSON       PTSUNNY   59  37  44 VRB8      29.90F
WINNIPEG       CLOUDY    64  57  77 SE18G31   29.63F
LYNN LAKE      SUNNY     59  37  44 SE13G22   29.85F
CHURCHILL      PTSUNNY   48  39  71 NE8       30.02S
GILLAM         PTSUNNY   55  37  50 S3        29.97S
$$
                ***SASKATCHEWAN***

CITY           SKY/WX    TMP DP  RH WIND       PRES   REMARKS
ESTEVAN        CLOUDY    61  55  82 SW8       29.41S
KINDERSLEY     CLOUDY    46  41  81 W12G21    29.48R
LLOYDMINSTER   CLOUDY    46  41  81 W15G22    29.43R
PRINCE ALBERT  LGT RAIN  52  50  93 E10       29.51R FOG
REGINA         CLOUDY    54  52  94 SW16      29.38F
YORKTON        LGT RAIN  55  54  94 E21G33    29.40F FOG
N. BATTLEFORD  LGT RAIN  48  46  93 W9        29.45S
LA RONGE       LGT RAIN  52  50  93 E13G23    29.62F
SASKATOON      LGT RAIN  50  50 100 W8        29.43R FOG
SWIFT CURRENT  CLOUDY    50  41  71 W21G28    29.48S
$$
NOTE: THESE ARE AUTOMATED STATIONS WITH LIMITED QUALITY CONTROL
      "FAIR" INDICATES FEW OR NO CLOUDS BELOW 12,000 FEET WITH NO
      SIGNIFICANT WEATHER AND/OR OBSTRUCTIONS TO VISIBILITY.
      SKY/WX - SKY CONDITION AND SIGNIFICANT WEATHER.
      TMP - AIR TEMPERATURE.    DP   - DEWPOINT TEMPERATURE.
      RH  - RELATIVE HUMIDITY.  PRES - PRESSURE.
      HX  - HEAT INDEX.         WCI  - WIND CHILL INDEX.
$




USA.gov is the U.S. government's official web portal to all federal, state and local government web resources and services.